Shreveport, LA

7:05 PM CDT on August 30, 2016 (GMT -0500)
Shreveport Downtown

Weather History for KDTN - February, 2013

Change the Weather History Date:

Monday, February 11, 2013

  Actual Average (KSHV) Record (KSHV)
Temperature  
Mean Temperature 52 °F 50 °F  
Max Temperature 57 °F 61 °F 81 °F (1999)
Min Temperature 48 °F 39 °F 13 °F (1899)
Degree Days  
Heating Degree Days 12 16  
Month to date heating degree days 181  
Since 1 July heating degree days 1653  
Cooling Degree Days 0 0  
Month to date cooling degree days 0  
Year to date cooling degree days 4  
Growing Degree Days 2 (Base 50)    
Moisture  
Dew Point 43 °F    
Average Humidity 70    
Maximum Humidity 93    
Minimum Humidity 47    
Precipitation  
Precipitation 0.14 in 0.18 in 3.08 in (1977)
Month to date precipitation 1.85  
Year to date precipitation 6.05  
Snow  
Snow 0.00 in - - ()
Month to date snowfall  
Since 1 July snowfall  
Snow Depth -    
Sea Level Pressure  
Sea Level Pressure 30.11 in    
Wind  
Wind Speed 5 mph (ENE)    
Max Wind Speed 10 mph    
Max Gust Speed 18 mph    
Visibility 10 miles    
Events Rain    
T = Trace of Precipitation, MM = Missing Value Source: NWS Daily Summary

Daily Weather History Graph

Daily Weather History Graph

Search for Another Location

Airport or City:

Trip Planner

Search our weather history database for the weather conditions in past years. The results will help you decide how hot, cold, wet, or windy it might be!

Date:

Astronomy

Feb. 11, 2013 Rise Set
Actual Time 7:01 AM CST 5:57 PM CST
Civil Twilight 6:36 AM CST 6:22 PM CST
Nautical Twilight 6:07 AM CST 6:51 PM CST
Astronomical Twilight 5:38 AM CST 7:20 PM CST
Moon 7:34 AM CST (2/11) 7:45 PM CST (2/11)
Length of Visible Light 11h 46m
Length of Day
10h 56m
Waxing Crescent, 3% of the Moon is Illuminated
Feb 11
Waxing Crescent
Feb 17
First Quarter
Feb 25
Full
Mar 4
Last Quarter
Mar 11
New

Hourly Weather History & Observations

Time (CST) Temp. Dew Point Humidity Pressure Visibility Wind Dir Wind Speed Gust Speed Precip Events Conditions
12:53 AM 55.0 °F 42.1 °F 62% 30.03 in 10.0 mi WNW 4.6 mph - N/A   Partly Cloudy
1:53 AM 55.0 °F 42.1 °F 62% 30.05 in 10.0 mi North 3.5 mph - N/A   Mostly Cloudy
2:53 AM 53.1 °F 42.1 °F 66% 30.04 in 10.0 mi Calm Calm - N/A   Clear
3:53 AM 53.1 °F 45.0 °F 74% 30.06 in 10.0 mi Calm Calm - N/A   Overcast
4:53 AM 55.0 °F 41.0 °F 59% 30.07 in 10.0 mi North 5.8 mph - N/A   Overcast
5:53 AM 53.1 °F 37.9 °F 57% 30.09 in 10.0 mi NNE 4.6 mph - 0.00 in Rain Light Rain
6:53 AM 50.0 °F 41.0 °F 71% 30.11 in 10.0 mi ENE 3.5 mph - 0.02 in Rain Light Rain
7:53 AM 50.0 °F 39.9 °F 68% 30.12 in 10.0 mi East 5.8 mph - 0.01 in   Partly Cloudy
8:53 AM 50.0 °F 41.0 °F 71% 30.15 in 10.0 mi NE 5.8 mph - 0.00 in   Overcast
9:53 AM 52.0 °F 39.9 °F 63% 30.13 in 10.0 mi ENE 9.2 mph - N/A   Clear
10:53 AM 54.0 °F 37.9 °F 55% 30.16 in 10.0 mi East 9.2 mph 18.4 mph N/A   Overcast
11:53 AM 54.0 °F 39.9 °F 59% 30.17 in 10.0 mi ESE 10.4 mph - N/A   Scattered Clouds
12:53 PM 55.9 °F 39.0 °F 53% 30.15 in 10.0 mi ENE 9.2 mph - N/A   Scattered Clouds
1:53 PM 57.0 °F 37.0 °F 47% 30.13 in 10.0 mi East 5.8 mph - N/A   Overcast
2:53 PM 57.0 °F 37.0 °F 47% 30.11 in 10.0 mi East 10.4 mph - N/A   Overcast
3:53 PM 55.0 °F 42.1 °F 62% 30.10 in 10.0 mi ESE 6.9 mph - 0.00 in   Overcast
4:53 PM 53.1 °F 46.9 °F 80% 30.08 in 10.0 mi East 5.8 mph - 0.02 in   Overcast
5:53 PM 52.0 °F 48.0 °F 86% 30.12 in 10.0 mi Calm Calm - 0.02 in   Overcast
6:53 PM 52.0 °F 46.9 °F 83% 30.10 in 10.0 mi East 3.5 mph - 0.00 in   Overcast
7:53 PM 51.1 °F 48.0 °F 89% 30.11 in 10.0 mi East 4.6 mph - 0.00 in   Overcast
8:53 PM 51.1 °F 46.9 °F 86% 30.14 in 10.0 mi Calm Calm - 0.01 in   Overcast
9:53 PM 50.0 °F 46.0 °F 86% 30.13 in 10.0 mi East 4.6 mph - 0.01 in Rain Light Rain
10:53 PM 48.9 °F 46.9 °F 93% 30.11 in 10.0 mi East 9.2 mph - 0.03 in Rain Light Rain
11:53 PM 48.9 °F 46.9 °F 93% 30.12 in 9.0 mi East 4.6 mph - 0.02 in Rain Light Rain